Regional Weather Roundup
Issued by NWS Portland, ME

Home | Current Version | Previous Version | Text Only | Print | Product List | Glossary On
Versions: 1 2 3 4 5 6 7 8 9 10 11 12 13 14 15 16 17 18 19 20 21 22 23 24 25 26 27 28 29 30 31 32 33 34 35 36 37 38 39 40 41 42 43 44 45 46 47 48 49 50
000
ASUS41 KGYX 290010
RWRGYX
WEATHER ROUNDUP FOR MAINE AND NEW HAMPSHIRE
NATIONAL WEATHER SERVICE GRAY ME
800 PM EDT FRI AUG 28 2015

MEZ002-005-006-010-012-015-018-020-021-024-026-027-029-290100-
MAINE

CITY           SKY/WX    TMP DP  RH WIND       PRES   REMARKS
PORTLAND       PTCLDY    67  58  72 S6        30.11R
6HR MIN TEMP:  67; 6HR MAX TEMP:  75;

SANFORD        CLEAR     64  55  72 S5        30.13R
BAR HARBOR     CLEAR     66  64  94 SW5       30.09R
WISCASSET      CLEAR     65  57  75 CALM      30.12R
6HR MIN TEMP:  65; 6HR MAX TEMP:  78;

ROCKLAND       CLEAR     64  55  72 W6        30.09R
FRYEBURG       CLEAR     62  62 100 CALM      30.12R
6HR MIN TEMP:  62; 6HR MAX TEMP:  80;

LEWISTONAUBURN CLEAR     66 N/A N/A S3        30.11R
AUGUSTA        CLEAR     66  59  78 S6        30.11R
6HR MIN TEMP:  66; 6HR MAX TEMP:  76;

WATERVILLE     CLEAR     66  55  68 CALM      30.07R
BANGOR         PTCLDY    64  58  80 SW5       30.08R
6HR MIN TEMP:  63; 6HR MAX TEMP:  77;

GREENVILLE       N/A     61  55  81 VRB5      30.10R
6HR MIN TEMP:  61; 6HR MAX TEMP:  71;

MILLINOCKET    CLEAR     65  59  81 CALM      30.09R
6HR MIN TEMP:  65; 6HR MAX TEMP:  77;

HOULTON        CLEAR     59  57  93 CALM      30.05R
6HR MIN TEMP:  59; 6HR MAX TEMP:  74;

PRESQUE ISLE   CLEAR     63  55  77 CALM      30.04R
6HR MIN TEMP:  63; 6HR MAX TEMP:  73;

FRENCHVILLE    CLEAR     64  52  64 W9        30.03R
6HR MIN TEMP:  64; 6HR MAX TEMP:  73;

CARIBOU        CLEAR     65  55  70 SW3       30.03R
6HR MIN TEMP:  65; 6HR MAX TEMP:  75;

$$

NHZ002-005-008-009-011-012-014-290100-
NEW HAMPSHIRE

CITY           SKY/WX    TMP DP  RH WIND       PRES   REMARKS
PORTSMOUTH     PTCLDY    66  60  79 S1        30.10R
ROCHESTER      CLEAR     67  58  72 CALM      30.12R
6HR MIN TEMP:  67; 6HR MAX TEMP:  80;

NASHUA         PTCLDY    71  56  58 N3        30.13R
MANCHESTER     PTCLDY    74  54  49 CALM      30.12R
6HR MIN TEMP:  74; 6HR MAX TEMP:  80;

CONCORD        CLEAR     65  56  72 CALM      30.13R
6HR MIN TEMP:  65; 6HR MAX TEMP:  80;

LACONIA        CLEAR     66  55  68 CALM      30.13R
PLYMOUTH       FAIR      62  58  87 CALM      30.14R
BERLIN         CLEAR     59  56  89 CALM      30.15R
6HR MIN TEMP:  59; 6HR MAX TEMP:  74;

WHITEFIELD     CLEAR     60  56  86 CALM      30.16R
6HR MIN TEMP:  60; 6HR MAX TEMP:  73;

JAFFREY        CLEAR     63  58  83 CALM      30.17R
6HR MIN TEMP:  63; 6HR MAX TEMP:  76;

KEENE          MOCLDY    64  55  72 CALM      30.15R
LEBANON        CLEAR     62  57  83 S3        30.14R
6HR MIN TEMP:  62; 6HR MAX TEMP:  79;

MT WASHINGTON  PTCLDY    46  28  49 W8          N/A
6HR MIN TEMP:  47; 6HR MAX TEMP:  51;

$$

VTZ005-007-008-290100-
VERMONT

CITY           SKY/WX    TMP DP  RH WIND       PRES   REMARKS
ST JOHNSBURY     N/A     65  57  75 MISG      30.14R
MONTPELIER     CLEAR     60  55  83 S3        30.20R
BURLINGTON     PTCLDY    70  56  61 CALM      30.14R
$$

MAZ007-012-024-CTZ003-RIZ002-NYZ038-NYZ072-290100-
SOUTHERN NEW ENGLAND AND NY

CITY           SKY/WX    TMP DP  RH WIND       PRES   REMARKS
BOSTON         PTCLDY    70  61  73 SE8       30.13R
WORCESTER      CLEAR     66  53  63 W7        30.17R
NANTUCKET      CLEAR     66  58  75 SW3       30.15R
PROVIDENCE     PTCLDY    71  59  65 SW9       30.14R
HARTFORD       PTCLDY    71  56  58 W7        30.14R
ALBANY         PTCLDY    69  53  56 W7        30.16R
NEW YORK CITY  PTCLDY    80  52  37 N8        30.14R
$$

ANZ081-ANZ082-ANZ150-NHZ014-MEZ023>029-290100-
COASTAL MARINE OBSERVATIONS

STATION/POSITION TIME  TEMP    WIND        PRES    WAVE
                       AIR SEA DIR/SP/G            HT/PER
                 (UTC) (F)     (DEG/KT/KT) (MB)    (FT/S)
MOUNT DESERT ROC 0000   61     220/ 13/ 14 1019.5R
MATINICUS ROCK   0000   62     240/ 14/ 14 1019.4R
ISLE OF SHOALS   0000   68     200/ 13/ 14 1019.5R
JEFFREYS LEDGE   2303      69                N/A     3/11
CASHES LEDGE BUO 2350   68                 1019.3R   3/11
GEORGES BANK BUO 2350   68 70   10/  6/  8 1019.8R   5/10
$$

.............KEY..............
   WCI - WIND CHILL
   TC  - TEMPERATURE IN CELSIUS
   VSB - VISIBILITY IN MILES
   HX  - HEAT INDEX
   FAIR- INDICATES FEW OR NO CLOUDS BELOW 12,000 FT, WITH NO
         SIGNIFICANT WEATHER AND/OR OBSTRUCTIONS TO VISIBILITY.





USA.gov is the U.S. government's official web portal to all federal, state and local government web resources and services.